Wind_Speed
5 5 4 9 11 13 15 15 12 15 19 15 12 2 5 4 6 7 9 14 14 16 15 21 24 27 29 29 31 30 27 26 25 24 20 16 11 5 16 23 23 26 28 24
4 9 10 15 16 17 18 20 19 23 25 16 5 7 7 5 6 6 9 12 14 15 17 21 24 25 26 28 31 29 27 26 24 27 27 28 23 21 17 29 30 28 28 29
3 1 8 13 8 8 9 11 14 16 16 7 7 8 6 5 4 6 9 11 12 13 16 21 23 25 26 26 27 30 29 29 28 28 29 31 33 32 27 31 29 26 29 27
2 2 4 2 4 4 9 1 8 11 3 11 13 10 8 6 5 8 10 11 11 15 19 21 23 26 24 26 29 30 31 32 33 30 28 30 35 35 39 33 28 31 32 27
2 3 8 2 4 5 4 0 8 6 11 17 16 14 9 7 9 10 10 11 13 15 16 19 24 25 23 27 28 30 31 31 32 33 31 29 34 33 37 34 28 33 33 33
2 3 3 2 12 10 8 4 9 8 9 13 10 3 3 6 9 10 13 13 15 16 18 23 25 24 24 27 29 30 28 28 31 32 31 34 35 31 31 40 33 29 36 36
5 3 3 10 15 9 4 4 7 6 3 7 3 6 9 7 10 12 12 15 15 18 21 22 23 24 25 26 28 26 28 30 33 33 33 32 30 32 33 33 27 33 37 37
3 3 4 14 3 5 3 7 7 9 11 16 13 12 10 10 10 12 14 16 17 18 21 22 24 23 25 26 24 27 28 31 33 34 32 30 30 31 31 31 30 28 31 29
2 2 3 5 7 8 6 6 8 10 10 12 11 11 10 9 10 12 14 15 16 18 19 21 22 22 22 23 26 27 29 27 28 30 31 31 31 29 27 27 25 24 25 24
3 4 7 6 7 8 9 10 10 10 10 10 11 10 9 8 9 12 14 15 15 17 19 21 22 23 21 20 22 24 24 24 25 29 29 29 29 30 29 26 26 24 23 23
3 6 8 8 7 7 9 10 12 11 10 10 11 10 10 9 11 13 14 14 15 17 18 20 21 23 23 22 20 21 21 20 21 21 22 27 34 30 29 33 26 22 23 22
1 3 5 4 5 7 8 9 9 11 11 12 13 11 13 11 12 13 14 14 16 17 18 18 20 21 22 23 23 20 21 20 20 19 18 18 19 24 31 29 28 28 25 22
3 8 11 8 7 8 9 9 11 12 13 12 13 14 13 12 12 13 13 13 15 15 15 16 18 23 23 23 23 24 18 17 17 18 17 16 15 15 15 17 24 24 23 21
8 7 6 1 6 9 12 14 15 15 14 13 12 12 12 12 12 13 14 13 14 15 17 16 17 21 21 19 19 19 18 19 15 15 15 14 14 14 13 13 14 16 19 20
3 3 8 13 11 10 12 12 10 9 10 11 11 11 11 12 12 11 10 12 14 18 18 17 19 21 19 19 19 18 14 14 15 15 16 14 12 12 12 13 13 13 12 15
9 11 10 10 9 9 8 7 9 8 9 10 11 12 13 13 13 13 13 14 15 15 17 19 19 18 16 16 16 14 13 13 12 12 13 13 13 12 11 11 11 12 14 13
10 7 8 8 7 7 6 7 9 9 10 11 11 11 12 13 12 12 12 14 16 16 15 15 15 14 14 14 14 12 11 11 12 10 9 9 9 9 9 9 9 10 10 13
3 4 7 8 8 8 8 10 11 10 11 11 12 13 13 13 11 9 9 10 11 13 14 14 13 12 11 11 11 10 10 10 10 10 8 8 7 6 6 6 6 7 7 8
8 10 11 12 11 12 12 11 10 12 14 15 16 15 14 11 9 9 9 9 8 8 11 13 12 10 10 11 11 10 10 9 9 9 8 7 6 5 4 4 3 3 3 3
12 13 13 13 13 13 12 13 15 15 14 16 17 14 12 10 9 8 7 8 9 5 5 9 10 11 10 9 10 9 9 9 8 7 8 7 6 6 6 5 4 3 3 2
9 12 13 15 15 14 16 16 17 16 15 13 14 13 11 8 5 5 5 3 3 5 5 6 9 11 9 7 7 9 8 7 7 7 7 7 6 6 6 6 6 6 5 4
9 10 14 16 17 16 14 14 15 16 15 14 13 11 9 7 6 4 3 3 3 5 5 5 6 7 8 7 7 7 7 6 6 6 6 6 6 6 7 8 7 6 6 5
11 13 15 17 17 16 15 14 14 15 15 13 11 9 7 5 5 4 4 3 3 3 3 4 5 5 6 7 7 8 8 8 8 8 8 8 9 9 9 9 9 8 7 7
13 14 15 14 16 13 12 11 13 12 10 9 8 6 6 5 4 3 2 1 1 2 3 4 6 8 10 11 12 13 14 14 15 15 14 14 14 13 13 12 12 12 11 11
13 13 13 13 11 10 12 12 11 10 9 6 5 3 3 3 2 3 3 3 3 4 6 7 8 9 11 12 13 14 15 15 15 15 16 16 17 18 18 17 17 15 15 14
13 11 10 8 10 11 11 10 8 7 7 6 5 6 5 4 3 3 3 2 3 4 6 8 10 11 12 13 14 15 15 14 14 14 16 15 14 13 13 14 16 19 19 18
10 12 11 10 10 11 10 7 6 6 7 7 7 5 5 5 5 5 4 4 5 6 7 9 10 12 13 14 15 15 15 13 14 14 14 14 14 13 14 14 14 16 17 17
Wind_Direction
249 270 225 250 251 245 242 243 245 261 255 271 289 274 85 40 25 11 355 29 356 354 352 351 354 354 356 357 1 3 12 19 22 31 40 51 64 126 185 172 159 156 151 146
249 244 253 268 263 253 255 260 261 259 264 267 119 119 83 46 31 11 9 27 1 356 357 359 358 355 358 1 6 11 20 22 24 38 43 48 55 60 66 125 130 130 128 126
235 201 302 280 252 219 230 259 258 248 250 150 139 101 83 59 26 27 25 30 5 359 356 1 1 0 3 4 12 20 23 25 28 36 47 54 55 57 48 68 95 100 98 103
264 279 236 54 74 267 280 125 348 317 180 146 122 103 80 51 41 39 34 29 11 8 5 6 5 10 12 18 24 24 25 29 29 35 43 56 64 58 52 56 56 73 80 85
243 222 295 329 29 333 336 83 18 34 109 124 123 109 72 60 52 46 39 28 18 11 14 14 15 10 20 28 29 29 27 28 32 36 40 47 54 58 68 51 49 63 70 73
162 244 261 9 324 310 274 229 23 360 139 146 164 147 96 56 54 48 40 34 27 23 26 26 18 17 27 31 30 27 26 33 40 43 46 48 55 54 65 71 53 60 62 66
216 268 293 349 321 307 198 17 20 359 264 155 89 75 108 82 61 51 42 36 35 32 33 25 23 26 32 32 29 26 35 42 46 49 47 52 56 61 64 70 69 61 63 60
193 219 277 359 355 28 64 57 51 56 87 104 101 95 90 76 65 52 44 37 35 38 35 28 29 33 37 34 33 44 42 44 47 50 50 52 55 55 58 61 61 60 62 59
351 78 65 25 42 33 63 91 78 82 84 99 102 93 86 78 66 58 52 46 45 47 42 35 34 37 38 32 45 50 50 45 46 49 50 51 52 50 51 52 56 56 60 60
172 86 70 66 62 54 70 81 82 85 91 94 98 93 85 77 68 63 53 52 49 51 46 37 34 37 38 36 42 48 48 47 47 49 50 50 52 51 51 49 52 50 51 54
85 125 122 85 68 83 86 88 89 83 89 94 98 87 88 79 68 62 58 53 54 53 50 44 40 39 35 36 41 48 51 48 50 52 54 55 56 55 58 56 59 62 60 60
79 30 74 76 78 95 96 92 97 102 93 85 96 94 90 77 73 69 61 54 51 49 49 46 47 46 45 46 48 49 52 51 50 51 51 55 61 61 58 61 59 60 60 63
100 75 86 89 83 95 99 99 97 99 102 102 95 95 90 87 77 74 66 62 62 60 55 49 47 47 47 51 58 61 58 54 53 53 52 52 54 57 60 56 61 59 57 57
117 117 108 15 102 106 104 99 100 96 92 91 91 89 92 90 82 72 65 61 62 61 56 50 48 48 51 50 55 61 63 62 59 57 55 54 53 54 53 50 49 46 49 56
44 59 110 125 121 112 118 118 108 99 98 91 90 91 89 84 78 70 67 68 65 58 49 46 43 42 45 46 47 51 51 54 56 56 56 60 61 62 63 60 57 54 46 45
117 116 121 124 127 128 123 118 111 103 98 96 91 88 94 92 82 73 66 66 67 55 46 44 41 37 41 44 46 48 52 55 56 54 52 51 53 56 58 57 56 53 49 39
140 146 144 142 143 136 122 122 124 124 120 112 110 110 104 99 89 77 73 72 70 64 53 42 33 34 38 42 43 39 43 46 49 52 54 56 57 59 60 62 61 59 56 52
145 147 162 156 148 136 129 127 126 124 119 121 123 119 113 106 100 97 93 85 76 67 51 38 30 30 34 38 38 37 38 39 40 41 38 36 37 41 46 52 55 57 59 57
130 125 125 130 134 128 126 121 115 124 128 133 130 120 120 114 105 92 92 84 68 53 33 30 29 33 39 39 35 34 34 34 34 33 30 28 28 24 19 21 29 40 43 46
92 96 104 105 116 127 126 131 131 124 128 132 127 120 112 107 106 98 87 63 47 38 32 34 32 35 37 35 32 34 34 33 32 29 29 24 17 7 0 355 337 309 303 315
104 112 112 117 113 124 133 140 138 130 132 132 130 128 124 119 110 94 77 82 47 47 42 38 35 33 30 33 30 32 32 31 29 23 16 10 3 359 354 349 338 321 299 278
127 121 124 127 123 121 130 135 135 131 132 131 130 126 122 119 120 121 126 107 72 53 44 33 26 28 32 33 29 24 19 12 6 1 351 344 336 334 336 334 327 322 320 308
136 135 136 137 134 130 129 130 130 130 129 132 138 145 145 147 151 137 111 93 83 54 35 22 16 8 359 353 350 344 338 334 328 324 322 320 317 309 309 314 314 309 294 295
135 136 135 137 133 129 125 135 134 135 139 146 149 148 157 158 149 154 128 97 35 354 343 343 342 340 336 333 327 323 320 314 310 307 306 305 300 294 292 293 293 290 288 288
141 140 141 142 143 140 139 145 146 151 150 146 143 184 202 213 223 222 278 277 293 330 342 347 348 348 347 346 345 342 338 333 328 325 317 310 308 294 288 287 285 285 277 274
149 150 151 155 151 150 149 152 144 152 160 155 123 85 72 47 6 317 291 336 7 8 4 354 353 352 350 347 345 343 341 337 334 327 319 312 308 309 313 317 311 292 276 270
144 145 144 137 144 147 152 146 138 129 127 120 107 69 53 47 61 64 59 39 13 2 0 358 352 350 347 345 341 338 336 336 332 331 330 331 331 327 322 317 313 311 311 299
Height
756 757 763 762 761 761 763 762 766 751 749 741 743 754 764 770 770 770 770 759 765 759 752 745 737 728 718 709 701 693 684 678 674 670 666 663 663 664 667 668 671 678 681 685
766 760 760 762 758 757 757 757 754 747 741 740 755 763 767 773 773 774 772 765 767 763 757 749 742 735 727 717 709 702 694 687 682 678 673 671 669 667 670 661 666 666 678 678
771 764 763 759 750 752 751 750 745 749 737 749 762 767 773 776 779 776 775 770 772 768 763 756 749 741 733 726 718 710 703 697 692 687 683 681 680 678 682 670 671 679 679 685
767 769 769 749 750 753 750 754 754 744 740 748 766 777 780 782 782 780 777 775 776 772 767 760 754 747 742 734 725 719 713 708 703 698 695 693 690 689 685 688 691 687 690 695
769 769 752 753 761 758 753 749 759 755 758 763 771 777 784 786 784 783 781 782 780 776 772 766 759 754 748 740 735 730 725 720 715 710 705 706 697 699 699 704 707 702 703 705
779 772 763 763 760 759 757 738 763 763 762 767 770 759 783 788 787 786 786 785 782 779 774 769 765 760 753 747 743 740 738 733 728 724 721 716 712 716 712 709 717 718 714 714
767 765 753 767 763 754 739 761 769 768 763 764 772 776 787 790 790 790 790 788 785 782 779 777 772 767 760 756 753 752 748 743 738 734 732 729 730 725 726 723 730 727 722 727
765 765 754 770 758 756 771 775 776 775 774 777 783 788 791 793 794 794 793 792 789 787 784 782 778 774 768 765 765 761 757 753 749 746 746 744 742 740 738 735 736 737 734 740
764 765 778 779 778 778 777 779 781 781 783 785 789 792 795 797 798 799 798 797 795 793 791 787 784 781 777 776 772 767 764 763 762 759 757 756 753 752 750 750 751 750 750 752
766 778 780 782 785 784 783 784 786 787 789 792 793 797 798 801 802 803 803 802 802 799 796 794 790 787 785 783 779 776 774 773 770 769 768 766 763 762 760 761 760 763 762 761
772 779 782 785 787 788 789 791 792 794 796 798 799 802 804 805 806 807 807 807 807 805 803 801 798 794 790 789 786 783 782 781 780 779 779 777 774 774 774 774 774 774 775 774
773 780 780 788 791 792 793 795 797 799 801 804 804 807 809 810 812 812 813 812 811 809 808 808 806 803 800 796 793 791 790 788 787 787 786 786 786 786 785 784 783 781 781 781
783 787 788 793 795 796 797 800 802 803 806 807 810 810 812 814 816 817 818 818 816 816 815 814 812 809 806 804 801 800 799 798 796 795 795 794 793 793 793 793 791 790 789 790
788 789 792 794 797 800 801 804 806 808 810 811 813 815 816 818 820 820 821 822 821 820 818 819 818 815 813 812 809 807 806 804 804 803 802 800 801 800 800 799 798 797 796 797
790 789 791 797 800 803 805 806 808 811 813 815 817 818 819 821 823 824 825 824 824 822 821 821 820 817 816 815 813 810 809 809 809 807 806 806 806 806 806 805 805 804 804 802
793 794 797 799 801 804 806 808 810 813 817 819 820 821 822 825 826 826 827 825 824 825 826 826 824 823 821 819 818 816 815 815 813 811 810 809 808 809 809 809 809 808 807 806
791 794 797 799 801 804 807 810 812 815 818 820 822 823 825 826 829 830 831 830 829 829 830 830 829 826 824 822 822 821 820 818 816 816 816 815 814 814 814 813 813 812 811 809
791 791 794 797 801 805 808 811 813 816 819 821 823 825 827 830 832 833 833 833 833 833 833 833 831 828 827 826 825 824 822 821 819 818 818 817 817 816 816 815 814 813 813 812
791 794 797 800 803 806 810 813 816 819 821 823 825 827 830 832 833 834 834 835 835 834 835 834 832 831 830 828 827 826 825 823 822 821 820 820 819 818 818 817 816 815 815 814
796 798 800 803 806 808 812 816 818 821 823 825 827 829 831 833 835 836 836 837 837 838 837 836 835 833 831 830 829 828 827 826 825 824 823 822 821 820 819 817 816 815 815 814
801 802 804 807 810 812 815 818 820 822 825 827 829 831 833 835 836 837 838 839 839 838 837 837 836 834 833 832 831 829 828 827 826 825 824 823 822 820 819 817 816 814 814 813
803 805 807 810 812 815 818 820 822 824 827 829 831 833 835 837 838 839 839 839 839 838 838 837 836 835 834 833 832 830 829 828 827 825 824 823 821 820 818 816 815 813 812 811
805 807 810 812 815 817 821 823 825 827 828 831 833 834 836 837 838 839 839 839 838 838 838 837 836 835 834 833 831 830 829 827 826 824 823 821 819 818 816 814 813 811 810 809
807 810 813 816 818 821 823 825 827 829 831 833 834 835 836 837 838 838 838 838 838 837 837 836 835 834 832 831 829 827 826 824 822 820 819 817 815 813 812 810 809 808 806 805
809 813 815 817 820 822 824 826 828 830 832 833 834 835 835 836 836 836 836 836 836 836 835 834 833 831 830 828 826 824 822 820 818 816 814 812 810 808 806 805 804 803 801 800
811 814 817 819 820 822 824 826 828 830 831 833 834 834 834 834 834 834 834 835 834 834 833 832 831 829 828 826 824 822 820 817 815 813 810 808 806 804 802 800 798 796 795 794
813 815 818 820 821 823 825 826 828 829 830 832 833 834 834 834 834 834 834 834 833 833 832 831 830 828 827 824 822 820 818 815 813 810 808 805 803 801 799 796 794 792 790 788